Location: Obersdorf
(47.4079°N, 10.2781°E)
Time: 18:55:47
(UTC+02:00)

Nauka - Pass Details

Date: 06 October 2021
Orbit: 417 x 423 km, 51.6° (Epoch: 24 October)

Event Time Altitude Azimuth Distance (km) Brightness Sun altitude
Rises 19:34:10 0° 290° (WNW) 2,365 ? -8.6°
Reaches altitude 10° 19:36:27 10° 278° (W) 1,499 ? -9.0°
Maximum altitude 19:39:21 27° 219° (SW) 840 ? -9.5°
Drops below altitude 10° 19:42:15 10° 159° (SSE) 1,493 ? -10.0°
Enters shadow 19:43:59 - 149° (SSE) 2,143 ? -10.2°
